Regional Weather Roundup
Issued by NWS

Home | Current Version | Previous Version | Graphics & Text | Print | Product List | Glossary On
Versions: 1 2 3 4 5 6 7 8 9 10 11 12 13 14 15 16 17 18 19 20 21 22 23 24 25 26 27 28 29 30 31 32 33 34 35 36 37 38 39 40 41 42 43 44 45 46 47 48 49 50
000
ASUS43 KDMX 260807
RWRIA

WEATHER ROUNDUP FOR IOWA
NATIONAL WEATHER SERVICE DES MOINES IA
200 AM CST WED NOV 26 2014

NOTE: "FAIR" INDICATES FEW OR NO CLOUDS BELOW 12,000 FEET WITH NO
SIGNIFICANT WEATHER AND/OR OBSTRUCTIONS TO VISIBILITY.

* - THESE STATIONS ARE NOT NWS STATIONS...THUS NOT UNDER NWS
QUALITY CONTROL.  THEY ALSO DO NOT REPORT WEATHER SUCH
AS PRECIPITATION OR FOG.

IAZ001>003-012>014-020>022-031>034-043>046-260900-
   NORTHWEST IOWA

CITY           SKY/WX    TMP DP  RH WIND       PRES   REMARKS
CARROLL *      MIX PCPN  30  30 100 SE13      29.86S WCI  20
CHEROKEE *     LGT SNOW  32  32 100 S7        29.83S WCI  26
DENISON *      CLOUDY    32  32 100 S12G21    29.81S FOG     WCI  23
LE MARS *      CLOUDY    34  32  93 CALM      29.82S FOG
ORANGE CITY *  LGT SNOW  32  30  93 CALM      29.81S
SHELDON *      LGT SNOW  30  30 100 E7        29.82R WCI  23
SIOUX CITY     LGT RAIN  35  33  92 W6        29.82S WCI  30
SPENCER        LGT SNOW  28  25  88 SE12      29.85S FOG     WCI  18
STORM LAKE *   LGT SNOW  30  28  93 SE14      29.83F WCI  20
$$

IAZ055>058-069>071-079>083-090>094-260900-
   SOUTHWEST IOWA

CITY           SKY/WX    TMP DP  RH WIND       PRES   REMARKS
ATLANTIC *     LGT SNOW  32  32 100 S14G20    29.84F VSB 1   WCI  22
AUDUBON *      LGT SNOW  34  27  75 S9        29.85F WCI  26
CLARINDA *     LGT SNOW  34  32  93 S17       29.89F WCI  23
COUNCIL BLFS * CLOUDY    34  34 100 S9        29.81F WCI  26
CRESTON *      CLOUDY    30  28  93 SE15      29.90F FOG     WCI  19
HARLAN  *      LGT SNOW  32  32 100 S12       29.86F WCI  23
LAMONI         LGT SNOW  31  25  78 S8        29.95S WCI  23
RED OAK *      LGT SNOW  34  32  93 S12       29.86F WCI  25
SHENANDOAH *   LGT SNOW  34  34 100 S14       29.87F WCI  24
$$

IAZ047>049-059>061-072>074-084-260900-
   CENTRAL IOWA

CITY           SKY/WX    TMP DP  RH WIND       PRES   REMARKS
AMES           CLOUDY    28  19  69 SE7       29.95F WCI  21
ANKENY *       MOCLDY    30  19  64 S7        29.96R WCI  23
CHARITON *     CLOUDY    32  19  59 S12       29.96S WCI  23
DES MOINES     CLOUDY    33  18  53 S6        29.96S WCI  28
GRINNELL*      CLOUDY    27  21  80 E9        29.98F WCI  17
KNOXVILLE *    CLOUDY    30  18  59 SE7       29.96R WCI  23
MARSHALLTOWN   CLOUDY    26  20  77 SE12      29.97F WCI  16
PELLA *        CLOUDY    28  21  74 SE9       29.99S WCI  20
PERRY *        LGT SNOW  30  28  93 SE12      29.91F VSB 1   WCI  21
$$

IAZ004>006-015-016-023>025-035-036-260900-
   NORTH CENTRAL IOWA

CITY           SKY/WX    TMP DP  RH WIND       PRES   REMARKS
ALGONA *       LGT SNOW  27  27 100 SE13      29.91S VSB 1   WCI  16
CLARION *      MIX PCPN  28  21  74 SE16      29.93F WCI  17
ESTHERVILLE    LGT SNOW  26  24  92 SE15      29.87F FOG     WCI  14
FORT DODGE *   CLOUDY    27  21  80 SE10      29.91F VSB 1   WCI  17
MASON CITY     CLOUDY    24  19  81 SE10      29.98S WCI  14
FOREST CITY *  FLURRIES  27  23  86 SE9G16    29.95S WCI  17
IOWA FALLS *   CLOUDY    27  21  80 SE12      29.96S WCI  16
$$

IAZ007>011-017>019-026>030-037>042-050>054-066-260900-
   NORTHEAST IOWA

CITY           SKY/WX    TMP DP  RH WIND       PRES   REMARKS
CEDAR RAPIDS   MOCLDY    20  18  92 E7        30.04F WCI  11
CHARLES CITY * CLOUDY    23  19  86 SE14      30.01S WCI  11
CLINTON *      CLEAR      9   7  92 E8        30.14R WCI  -4
DECORAH *      MOCLDY    18  14  86 SE6       30.03F WCI   9
DUBUQUE        MOCLDY    16  14  92 S5        30.09S WCI   9
MONTICELLO *   CLEAR     19  18  93 SE8       30.08F WCI   9
OELWEIN *      CLOUDY    21  18  86 SE15      30.03F WCI   8
WATERLOO       MOCLDY    22  19  89 SE8       30.02F WCI  12
$$

IAZ064-065-067-068-078-260900-
   EAST CENTRAL IOWA

CITY           SKY/WX    TMP DP  RH WIND       PRES   REMARKS
DAVENPORT      PTCLDY    16  13  88 E8        30.11F WCI   5
IOWA CITY      MOCLDY    21  18  88 SE5       30.08F WCI  15
MT. PLEASANT * PTCLDY    21  19  93 E8        30.06F WCI  12
MUSCATINE *    CLEAR     16  14  93 CALM      30.10F
QUAD CITIES    CLEAR     12   9  87 E6        30.11F WCI   3
$$

IAZ062-063-075>077-085>089-095>099-260900-
   SOUTHEAST IOWA

CITY           SKY/WX    TMP DP  RH WIND       PRES   REMARKS
BURLINGTON     PTCLDY    24  21  88 SE6       30.08F WCI  17
FAIRFIELD *    MOCLDY    25  19  80 SE10      30.02F WCI  15
FORT MADISON * CLEAR     27  25  93 SE7       30.07F WCI  19
KEOKUK *       CLEAR     27  23  86 E8        30.05F WCI  18
OSKALOOSA *      N/A     25  21  86 SE12      30.00S WCI  14
CENTERVILLE *  CLEAR     28  19  69 SE7       29.99F WCI  21
OTTUMWA        MOCLDY    26  18  71 SE10      29.99F WCI  16
WASHINGTON *   CLEAR     23  23 100 SE10      30.05F WCI  12
$$

ABBREVIATIONS USED IN REMARKS
   TC - TEMPERATURES IN CELSIUS
  WCI - WIND CHILL INDEX
   HX - HEAT INDEX
  VSB - VISIBILITY
$$



USA.gov is the U.S. government's official web portal to all federal, state and local government web resources and services.